Regional Weather Roundup
Issued by NWS

Home | Current Version | Previous Version | Graphics & Text | Print | Product List | Glossary On
Versions: 1 2 3 4 5 6 7 8 9 10 11 12 13 14 15 16 17 18 19 20 21 22 23 24 25 26 27 28 29 30 31 32 33 34 35 36 37 38 39 40 41 42 43 44 45 46 47 48 49 50
000
ASUS43 KMKX 020600
RWRWI

WISCONSIN REGIONAL WEATHER ROUNDUP
NATIONAL WEATHER SERVICE MILWAUKEE/SULLIVAN WI
100 AM CDT WED SEP 02 2015

NOTE: "FAIR" INDICATES FEW OR NO CLOUDS BELOW 12,000 FEET WITH NO
SIGNIFICANT WEATHER AND/OR OBSTRUCTIONS TO VISIBILITY.

WIZ001-002-006>008-014>016-023>028-020700-
NORTHWEST WISCONSIN

CITY           SKY/WX    TMP DP  RH WIND       PRES   REMARKS
SUPERIOR ARPT  FAIR      67  67 100 CALM      29.93R FOG
ASHLAND        FOG       65  65 100 CALM      29.94S VSB 1/2
6HR MIN TEMP:  64; 6HR MAX TEMP:  81;

HAYWARD        FAIR      68  67  96 CALM      29.96R FOG
6HR MIN TEMP:  67; 6HR MAX TEMP:  79;

SIREN          MOCLDY    74  72  91 S3        29.93F
CUMBERLAND     MOCLDY    70  70 100 CALM      29.96S FOG
RICE LAKE      FAIR      71  69  95 CALM      29.97S FOG
CHETEK         FAIR     N/A N/A N/A CALM      29.95S HAZE
LADYSMITH      FAIR      73  70  92 CALM      29.98S
6HR MIN TEMP:  73; 6HR MAX TEMP:  79;

EAU CLAIRE     NOT AVBL
MENOMONIE      FAIR      73  71  96 S5        29.96R
6HR MIN TEMP:  72; 6HR MAX TEMP:  83;

NEW RICHMOND   FAIR      73  72  96 CALM      29.95S
OSCEOLA        MOCLDY    75  75 100 S6        29.96R
$$

WIZ003>005-009-010-017-018-020700-
NORTH CENTRAL WISCONSIN

CITY           SKY/WX    TMP DP  RH WIND       PRES   REMARKS
MANITOWISH WTR FOG       62  62 100 CALM      29.99S VSB 1/4
ARBOR VITAE    FAIR      67  66  95 CALM      30.00S FOG
WOODRUFF       FAIR      67  66  95 CALM      30.00S FOG
RHINELANDER    MOCLDY    67  65  93 CALM      30.00F FOG
6HR MIN TEMP:  67; 6HR MAX TEMP:  78;

EAGLE RIVER    FOG       65  65 100 CALM      30.00S VSB 3/4
LAND O LAKES   FOG       62  62  99 CALM      30.01S VSB 1
PHILLIPS       FAIR      68  68 100 CALM      29.98S FOG
6HR MIN TEMP:  67; 6HR MAX TEMP:  77;

TOMAHAWK       FOG       67  66  96 CALM      29.99F VSB 3/4
MEDFORD        FAIR      69  69 100 S5        29.99F FOG
MERRILL        FOG       68  68 100 CALM      29.99S VSB 1/4
$$

WIZ029-030-035-036-043>047-020700-
CENTRAL WISCONSIN

CITY           SKY/WX    TMP DP  RH WIND       PRES   REMARKS
WAUSAU         CLOUDY    73  70  90 CALM      29.97S FOG
6HR MIN TEMP:  72; 6HR MAX TEMP:  81;

MOSINEE        FOG       70  70 100 CALM      30.00S VSB 1
MARSHFIELD     FOG       72  68  87 CALM      29.99S VSB 1
6HR MIN TEMP:  71; 6HR MAX TEMP:  81;

STEVENS POINT  FAIR      69  68  96 CALM      29.99S
WAUPACA        FAIR      72  71  98 CALM      29.98S FOG
WAUTOMA        NOT AVBL
WISC RAPIDS    MOCLDY    73  70  90 SW5       30.00R
6HR MIN TEMP:  71; 6HR MAX TEMP:  81;

CAMP DOUGLAS   FAIR      68  68 100 CALM      29.98R FOG
$$

WIZ011>013-019>022-031-037>040-048>050-020700-
NORTHEAST WISCONSIN

CITY           SKY/WX    TMP DP  RH WIND       PRES   REMARKS
ANTIGO         FAIR      67  67 100 CALM      30.00F FOG
SHAWANO        FAIR      74  71  88 CALM      29.97S
OCONTO         FAIR      69  69 100 CALM      29.95S
STURGEON BAY   FAIR      72  68  88 S6        29.98F
6HR MIN TEMP:  72; 6HR MAX TEMP:  75;

GREEN BAY      FAIR      73  71  93 S5        29.97S FOG
6HR MIN TEMP:  72; 6HR MAX TEMP:  81;

MANITOWOC      NOT AVBL
APPLETON       FAIR      73  70  88 SW5       29.97S
CLINTONVILLE   FAIR      70  68  94 CALM      29.97S FOG
OSHKOSH        FAIR      72  69  90 S5        29.98S FOG
6HR MIN TEMP:  71; 6HR MAX TEMP:  79;

$$

WIZ032>034-041-042-053>061-020700-
SOUTHWEST WISCONSIN

CITY           SKY/WX    TMP DP  RH WIND       PRES   REMARKS
LA CROSSE      FAIR      77  73  87 SE5       29.95S
6HR MIN TEMP:  77; 6HR MAX TEMP:  85;

SPARTA         FAIR      70  68  93 CALM      29.98S
VIROQUA          N/A     73  73 100 SW5       30.01S
BOSCOBEL       FOG       71  69  93 CALM      29.99S VSB 1/4
6HR MIN TEMP:  69; 6HR MAX TEMP:  85;

PRAIRIE DU CHI FAIR      76  70  80 CALM      29.99S
PLATTEVILLE    FAIR      71  70  95 S7        30.02S
$$

WIZ056-057-062-063-064-067-068-020700-
SOUTH CENTRAL WISCONSIN

CITY           SKY/WX    TMP DP  RH WIND       PRES   REMARKS
REEDSBURG      FAIR      76  73  91 SW3       29.98S
BARABOO/DELLS  FAIR      75  71  87 SW5       29.99S
LONE ROCK      NOT AVBL
MINERAL POINT  FAIR      73  70  88 SW6       30.03S
MADISON        FAIR      77  70  79 SW6       29.99S
6HR MIN TEMP:  75; 6HR MAX TEMP:  84;

MIDDLETON      FAIR      78  70  75 SW9       30.00F HX  80
WATERTOWN      FAIR      72  72 100 CALM      30.00F
MONROE         FAIR      73  70  88 SW9       30.02F
JANESVILLE     FAIR      73  72  94 S5        30.01S
$$

WIZ051-052-058>065-066-070>072-020700-
SOUTHEAST WISCONSIN

CITY           SKY/WX    TMP DP  RH WIND       PRES   REMARKS
MILWAUKEE      FAIR      77  70  79 SW10      30.00F
6HR MIN TEMP:  76; 6HR MAX TEMP:  85;

WAUKESHA       FAIR      72  70  94 S3        30.02F
MILWAUKEE/TIMM FAIR      75  68  78 SW6       30.01S
RACINE         MOCLDY    76  70  82 SW3       30.02F
6HR MIN TEMP:  76; 6HR MAX TEMP:  84;

BURLINGTON     FAIR      68  67  96 CALM      30.02S FOG
KENOSHA        FAIR      76  72  87 SW7       30.02S
6HR MIN TEMP:  76; 6HR MAX TEMP:  84;

FOND DU LAC    FAIR      74  71  91 S6        29.99S
6HR MIN TEMP:  73; 6HR MAX TEMP:  81;

SHEBOYGAN      FAIR      70  68  93 SW3       29.99S FOG
6HR MIN TEMP:  69; 6HR MAX TEMP:  78;

WEST BEND      FAIR      72  68  88 CALM      30.00F
JUNEAU         FAIR      72  70  93 S3        30.02S
$$

LSZ147-162-020700-
LAKE SUPERIOR

STATION/POSITION TIME  TEMP    WIND        PRES    WAVE
                       AIR SEA DIR/SP/G            HT/PER
                 (UTC) (F)     (DEG/KT/KT) (MB)    (FT/S)
W MID LAKE BUOY  0450   62 56  100/  2/  4 1013.7F   0
DEVILS ISLAND    0500   74     150/  7/  7 1013.0F
PORT WING        0540   68     170/  3/  3 1013.5S
SAXON HARBOR     0540   66        CALM     1013.2S
$$

LMZ867-665-643>646-020700-
LAKE MICHIGAN

STATION/POSITION TIME  TEMP    WIND        PRES    WAVE
                       AIR SEA DIR/SP/G            HT/PER
                 (UTC) (F)     (DEG/KT/KT) (MB)    (FT/S)
CHAMBERS ISLAND  0500   74     180/  3/  7 1014.2S
S GREEN BAY BUOY 0530   71 67  190/  6/  6 1015.8R
N MID LAKE BUOY  0450   67 65  200/ 10/ 12 1014.4R   2/ 4
NORTHPORT PIER   0500   70     190/  3/  7 1014.6R
SISTER BAY       0519   72     150/  5/  6   N/A
ALGOMA LAKESHORE 0514             CALM       N/A
KEWAUNEE LAKESHO 0500   53     150/  2/  4 1014.1R
SHEBOYGAN LAKESH 0500   69     210/  3/  3 1015.5S
PORT WASHINGTON  0500   61      CALM  /  2 1016.3S
ATWATER BUOY     0500   57 49  160/  6/  8 1017.2S
MILWAUKEE LAKESH 0540   78     210/  5/  6   N/A
S MID LAKE BUOY  0450   73 70  200/ 12/ 14 1016.1R
KENOSHA   LAKESH 0500   77     220/  8/ 10 1015.9S
$$

TC  - TEMPERATURE IN CELSIUS
VSB - VISIBILITY IN STATUTE MILES
WCI - WIND CHILL INDEX
HX  - HEAT INDEX




USA.gov is the U.S. government's official web portal to all federal, state and local government web resources and services.